LOT3996 EPBY-EPWA

Flight info

Callsign LOT3996
Flight time 0h 37m
Altitude 25000
Route INTUN DCT NASOK DCT SORIX
Aircraft B736/M-SDE2E3FGHIRWXY/LB1

Departure

Time 2026-04-30 21:43
Airport Ignacy Jan Paderewski Bydgoszcz Airport (EPBY)

Arrival

Time 2026-04-30 22:20
Airport Warsaw Chopin Airport (EPWA)
Time Latitude Longitude Altitude Speed Heading
2026-04-30 21:21 53.09461 17.99762 239 ft 0 kts 173°
2026-04-30 21:36 53.09471 17.99760 238 ft 2 kts 162°
2026-04-30 21:37 53.09503 17.99711 237 ft 2 kts 111°
2026-04-30 21:37 53.09510 17.99689 237 ft 2 kts 138°
2026-04-30 21:37 53.09523 17.99676 236 ft 2 kts 166°
2026-04-30 21:37 53.09537 17.99674 236 ft 2 kts 173°
2026-04-30 21:38 53.09552 17.99667 235 ft 2 kts 149°
2026-04-30 21:38 53.09563 17.99651 235 ft 2 kts 129°
2026-04-30 21:38 53.09571 17.99630 234 ft 2 kts 107°
2026-04-30 21:38 53.09573 17.99605 234 ft 2 kts 85°
2026-04-30 21:39 53.09573 17.99595 234 ft 0 kts 78°
2026-04-30 21:40 53.09575 17.99608 234 ft 5 kts 73°
2026-04-30 21:41 53.09649 17.99646 231 ft 6 kts 355°
2026-04-30 21:41 53.09676 17.99643 230 ft 0 kts 351°
2026-04-30 21:41 53.09684 17.99641 230 ft 4 kts 351°
2026-04-30 21:41 53.09793 17.99608 228 ft 23 kts 336°
2026-04-30 21:42 53.09819 17.99430 228 ft 21 kts 262°
2026-04-30 21:42 53.09764 17.98777 229 ft 89 kts 262°
2026-04-30 21:42 53.09652 17.97420 227 ft 143 kts 264°
2026-04-30 21:42 53.09510 17.95687 494 ft 159 kts 263°
2026-04-30 21:43 53.09336 17.93807 1012 ft 167 kts 264°
2026-04-30 21:43 53.09223 17.92549 1353 ft 172 kts 265°
2026-04-30 21:43 53.08984 17.89828 2025 ft 186 kts 266°
2026-04-30 21:43 53.08729 17.87594 2363 ft 213 kts 253°
2026-04-30 21:44 53.07791 17.85496 2808 ft 238 kts 220°
2026-04-30 21:44 53.06303 17.84190 3417 ft 251 kts 195°
2026-04-30 21:44 53.04544 17.84170 4063 ft 258 kts 166°
2026-04-30 21:44 53.02981 17.85456 4795 ft 255 kts 136°
2026-04-30 21:45 53.01761 17.87578 5555 ft 255 kts 123°
2026-04-30 21:45 53.01010 17.90288 6030 ft 261 kts 96°
2026-04-30 21:45 53.01029 17.93260 6634 ft 263 kts 76°
2026-04-30 21:45 53.01291 17.96274 7447 ft 268 kts 86°
2026-04-30 21:46 53.00785 17.99281 8231 ft 282 kts 115°
2026-04-30 21:46 52.99668 18.01953 9034 ft 286 kts 120°
2026-04-30 21:46 52.98577 18.04727 9839 ft 287 kts 115°
2026-04-30 21:46 52.97599 18.07592 10627 ft 291 kts 112°
2026-04-30 21:47 52.96623 18.10652 10925 ft 311 kts 112°
2026-04-30 21:47 52.95597 18.13950 11214 ft 332 kts 112°
2026-04-30 21:47 52.94503 18.17482 11590 ft 351 kts 112°
2026-04-30 21:47 52.93368 18.21135 12212 ft 359 kts 112°
2026-04-30 21:48 52.92229 18.24790 12999 ft 361 kts 111°
2026-04-30 21:48 52.91072 18.28500 13815 ft 363 kts 111°
2026-04-30 21:48 52.89920 18.32196 14571 ft 367 kts 111°
2026-04-30 21:48 52.88740 18.35979 15302 ft 371 kts 110°
2026-04-30 21:49 52.87559 18.39760 16052 ft 374 kts 110°
2026-04-30 21:49 52.86368 18.43566 16906 ft 374 kts 110°
2026-04-30 21:49 52.85171 18.47384 17685 ft 375 kts 109°
2026-04-30 21:49 52.83971 18.51211 18428 ft 377 kts 109°
2026-04-30 21:50 52.82748 18.55107 19096 ft 382 kts 109°
2026-04-30 21:50 52.81533 18.58970 19776 ft 386 kts 109°
2026-04-30 21:50 52.80290 18.62920 20430 ft 390 kts 109°
2026-04-30 21:50 52.79022 18.66946 20958 ft 398 kts 110°
2026-04-30 21:51 52.77739 18.71007 21611 ft 402 kts 110°
2026-04-30 21:51 52.76442 18.75102 22186 ft 407 kts 110°
2026-04-30 21:51 52.75123 18.79256 22810 ft 411 kts 109°
2026-04-30 21:51 52.73810 18.83387 23448 ft 414 kts 109°
2026-04-30 21:52 52.72463 18.87611 24099 ft 416 kts 109°
2026-04-30 21:52 52.71119 18.91822 24781 ft 417 kts 109°
2026-04-30 21:52 52.69771 18.96034 25269 ft 418 kts 109°
2026-04-30 21:52 52.68407 19.00301 25378 ft 424 kts 109°
2026-04-30 21:53 52.67032 19.04582 25361 ft 418 kts 109°
2026-04-30 21:53 52.65695 19.08728 25361 ft 416 kts 109°
2026-04-30 21:53 52.64337 19.12942 25359 ft 417 kts 109°
2026-04-30 21:53 52.62970 19.17188 25362 ft 416 kts 109°
2026-04-30 21:54 52.61624 19.21354 25364 ft 416 kts 108°
2026-04-30 21:54 52.60274 19.25531 25359 ft 416 kts 108°
2026-04-30 21:54 52.58908 19.29746 25358 ft 416 kts 108°
2026-04-30 21:54 52.57555 19.33919 25358 ft 417 kts 109°
2026-04-30 21:55 52.56188 19.38125 25360 ft 416 kts 109°
2026-04-30 21:55 52.54819 19.42330 25358 ft 417 kts 108°
2026-04-30 21:55 52.53453 19.46518 25358 ft 416 kts 108°
2026-04-30 21:55 52.52090 19.50686 25358 ft 416 kts 108°
2026-04-30 21:56 52.50713 19.54901 25360 ft 418 kts 108°
2026-04-30 21:56 52.49353 19.59049 25357 ft 417 kts 108°
2026-04-30 21:56 52.47970 19.63258 25362 ft 416 kts 108°
2026-04-30 21:56 52.46600 19.67418 25359 ft 415 kts 109°
2026-04-30 21:57 52.45245 19.71533 25356 ft 416 kts 109°
2026-04-30 21:57 52.43841 19.75803 25349 ft 426 kts 109°
2026-04-30 21:57 52.42452 19.80012 25057 ft 422 kts 109°
2026-04-30 21:57 52.41006 19.84187 24327 ft 420 kts 111°
2026-04-30 21:58 52.39610 19.88273 23466 ft 416 kts 109°
2026-04-30 21:58 52.38286 19.92442 22593 ft 413 kts 108°
2026-04-30 21:58 52.36988 19.96639 21709 ft 411 kts 108°
2026-04-30 21:58 52.35726 20.00786 20844 ft 409 kts 108°
2026-04-30 21:59 52.34576 20.04938 20142 ft 395 kts 101°
2026-04-30 21:59 52.34245 20.09175 19830 ft 366 kts 79°
2026-04-30 21:59 52.34680 20.13238 19589 ft 363 kts 71°
2026-04-30 22:00 52.35752 20.21364 19072 ft 366 kts 74°
2026-04-30 22:00 52.35636 20.29649 18377 ft 371 kts 92°
2026-04-30 22:00 52.35144 20.33778 17682 ft 367 kts 94°
2026-04-30 22:01 52.34636 20.37827 16958 ft 365 kts 94°
2026-04-30 22:01 52.34141 20.41883 16219 ft 361 kts 94°
2026-04-30 22:01 52.33671 20.45873 15431 ft 360 kts 94°
2026-04-30 22:01 52.33209 20.49885 14619 ft 360 kts 94°
2026-04-30 22:02 52.32755 20.53864 13835 ft 359 kts 94°
2026-04-30 22:02 52.32296 20.57897 13093 ft 356 kts 94°
2026-04-30 22:02 52.31850 20.61805 12366 ft 354 kts 94°
2026-04-30 22:02 52.31402 20.65732 11704 ft 350 kts 95°
2026-04-30 22:03 52.30959 20.69593 11218 ft 341 kts 95°
2026-04-30 22:03 52.30527 20.73344 10981 ft 326 kts 95°
2026-04-30 22:03 52.30119 20.76856 10868 ft 309 kts 95°
2026-04-30 22:03 52.29731 20.80215 10743 ft 294 kts 94°
2026-04-30 22:04 52.29359 20.83445 10604 ft 280 kts 94°
2026-04-30 22:04 52.29005 20.86517 10390 ft 271 kts 94°
2026-04-30 22:04 52.28321 20.92475 9678 ft 266 kts 94°
2026-04-30 22:05 52.27982 20.95388 9351 ft 262 kts 94°
2026-04-30 22:05 52.27640 20.98324 9018 ft 259 kts 94°
2026-04-30 22:05 52.27179 21.01148 8694 ft 261 kts 107°
2026-04-30 22:05 52.26109 21.03542 8478 ft 265 kts 135°
2026-04-30 22:06 52.24534 21.05108 8410 ft 268 kts 148°
2026-04-30 22:06 52.21058 21.08104 7685 ft 288 kts 148°
2026-04-30 22:06 52.19305 21.09613 7328 ft 283 kts 148°
2026-04-30 22:07 52.17586 21.11092 7029 ft 275 kts 148°
2026-04-30 22:07 52.15946 21.12498 6952 ft 261 kts 148°
2026-04-30 22:07 52.14367 21.13865 6753 ft 253 kts 147°
2026-04-30 22:07 52.12839 21.15208 6417 ft 251 kts 148°
2026-04-30 22:08 52.11295 21.16564 6118 ft 247 kts 148°
2026-04-30 22:08 52.09803 21.17872 5827 ft 243 kts 148°
2026-04-30 22:08 52.08344 21.19148 5698 ft 234 kts 148°
2026-04-30 22:08 52.06930 21.20380 5579 ft 224 kts 148°
2026-04-30 22:09 52.05580 21.21559 5362 ft 220 kts 148°
2026-04-30 22:09 52.04246 21.22727 5102 ft 218 kts 148°
2026-04-30 22:09 52.02896 21.23905 4840 ft 217 kts 148°
2026-04-30 22:09 52.01580 21.25052 4600 ft 216 kts 149°
2026-04-30 22:10 52.00252 21.26202 4352 ft 215 kts 149°
2026-04-30 22:10 51.98933 21.27339 4101 ft 213 kts 149°
2026-04-30 22:10 51.97616 21.28397 3844 ft 213 kts 158°
2026-04-30 22:10 51.96155 21.28719 3577 ft 212 kts 187°
2026-04-30 22:11 51.93700 21.26538 3073 ft 201 kts 236°
2026-04-30 22:11 51.93015 21.24642 2972 ft 186 kts 245°
2026-04-30 22:11 51.92441 21.22885 2972 ft 168 kts 246°
2026-04-30 22:12 51.92073 21.21211 2974 ft 146 kts 270°
2026-04-30 22:12 51.92126 21.19616 2986 ft 139 kts 287°
2026-04-30 22:12 51.92502 21.18219 2974 ft 134 kts 307°
2026-04-30 22:12 51.93133 21.17125 2973 ft 133 kts 326°
2026-04-30 22:13 51.93919 21.16406 2966 ft 124 kts 333°
2026-04-30 22:13 51.94652 21.15774 2976 ft 119 kts 333°
2026-04-30 22:13 51.95382 21.15142 2975 ft 118 kts 333°
2026-04-30 22:13 51.96111 21.14513 2973 ft 118 kts 333°
2026-04-30 22:14 51.96830 21.13888 2973 ft 117 kts 333°
2026-04-30 22:14 51.97608 21.13215 2965 ft 134 kts 333°
2026-04-30 22:14 51.98448 21.12483 2970 ft 139 kts 333°
2026-04-30 22:14 51.99309 21.11718 2974 ft 142 kts 333°
2026-04-30 22:15 52.00177 21.10950 2975 ft 141 kts 333°
2026-04-30 22:15 52.01045 21.10190 2978 ft 142 kts 333°
2026-04-30 22:15 52.01920 21.09431 2978 ft 142 kts 333°
2026-04-30 22:15 52.02800 21.08669 2978 ft 141 kts 333°
2026-04-30 22:16 52.03664 21.07921 2983 ft 142 kts 333°
2026-04-30 22:16 52.04553 21.07152 2846 ft 145 kts 333°
2026-04-30 22:17 52.07184 21.04872 2252 ft 142 kts 332°
2026-04-30 22:17 52.08063 21.04110 2053 ft 143 kts 332°
2026-04-30 22:17 52.09793 21.02608 1644 ft 132 kts 331°
2026-04-30 22:18 52.10571 21.01932 1482 ft 123 kts 331°
2026-04-30 22:18 52.12087 21.00615 1146 ft 124 kts 331°
2026-04-30 22:19 52.13612 20.99287 795 ft 125 kts 330°
2026-04-30 22:19 52.14384 20.98623 621 ft 124 kts 331°
2026-04-30 22:19 52.15905 20.97310 344 ft 117 kts 331°
2026-04-30 22:20 52.16520 20.96754 332 ft 76 kts 333°
2026-04-30 22:20 52.17025 20.96374 333 ft 18 kts 47°
2026-04-30 22:20 52.17081 20.96546 332 ft 13 kts 63°
2026-04-30 22:21 52.17087 20.96568 331 ft 0 kts 63°
2026-04-30 22:21 52.17086 20.96646 331 ft 11 kts 104°
2026-04-30 22:21 52.17085 20.96771 331 ft 6 kts 95°
2026-04-30 22:21 52.17083 20.96794 331 ft 1 kts 96°
2026-04-30 22:22 52.17083 20.96795 331 ft 0 kts 96°